TimeCST,TemperatureF,Dew PointF,Humidity,Sea Level PressureIn,VisibilityMPH,Wind Direction,Wind SpeedMPH,Gust SpeedMPH,PrecipitationIn,Events,Conditions,WindDirDegrees,DateUTC
12:12 AM,-14.8,-22.0,70,30.12,10.0,Calm,Calm,-,N/A,,Clear,0,2014-02-08 06:12:00
12:32 AM,-14.8,-22.0,70,30.12,10.0,Calm,Calm,-,N/A,,Clear,0,2014-02-08 06:32:00
12:52 AM,-14.8,-22.0,70,30.12,10.0,Calm,Calm,-,N/A,,Clear,0,2014-02-08 06:52:00
1:12 AM,-16.6,-22.0,76,30.12,10.0,Calm,Calm,-,N/A,,Clear,0,2014-02-08 07:12:00
1:32 AM,-16.6,-23.8,70,30.12,10.0,Calm,Calm,-,N/A,,Clear,0,2014-02-08 07:32:00
1:52 AM,-16.6,-23.8,70,30.11,10.0,Calm,Calm,-,N/A,,Clear,0,2014-02-08 07:52:00
2:12 AM,-16.6,-23.8,70,30.12,10.0,Calm,Calm,-,N/A,,Clear,0,2014-02-08 08:12:00
2:32 AM,-18.4,-25.6,70,30.11,10.0,Calm,Calm,-,N/A,,Clear,0,2014-02-08 08:32:00
2:52 AM,-18.4,-23.8,76,30.11,10.0,Calm,Calm,-,N/A,,Clear,0,2014-02-08 08:52:00
3:12 AM,-18.4,-25.6,70,30.11,10.0,Calm,Calm,-,N/A,,Clear,0,2014-02-08 09:12:00
3:32 AM,-20.2,-25.6,76,30.11,10.0,Calm,Calm,-,N/A,,Clear,0,2014-02-08 09:32:00
3:52 AM,-18.4,-25.6,70,30.10,10.0,Calm,Calm,-,N/A,,Clear,0,2014-02-08 09:52:00
4:12 AM,-20.2,-27.4,69,30.10,10.0,Calm,Calm,-,N/A,,Clear,0,2014-02-08 10:12:00
4:32 AM,-20.2,-27.4,69,30.10,10.0,Calm,Calm,-,N/A,,Clear,0,2014-02-08 10:32:00
4:52 AM,-22.0,-27.4,76,30.10,10.0,Calm,Calm,-,N/A,,Clear,0,2014-02-08 10:52:00
5:12 AM,-20.2,-27.4,69,30.09,10.0,Calm,Calm,-,N/A,,Clear,0,2014-02-08 11:12:00
5:32 AM,-22.0,-27.4,76,30.09,10.0,Calm,Calm,-,N/A,,Clear,0,2014-02-08 11:32:00
5:52 AM,-22.0,-27.4,76,30.09,10.0,Calm,Calm,-,N/A,,Clear,0,2014-02-08 11:52:00
6:12 AM,-22.0,-27.4,76,30.09,10.0,Calm,Calm,-,N/A,,Clear,0,2014-02-08 12:12:00
6:32 AM,-22.0,-27.4,76,30.10,10.0,Calm,Calm,-,N/A,,Clear,0,2014-02-08 12:32:00
6:52 AM,-22.0,-29.2,69,30.10,10.0,Calm,Calm,-,N/A,,Clear,0,2014-02-08 12:52:00
7:12 AM,-22.0,-29.2,69,30.10,10.0,Calm,Calm,-,N/A,,Clear,0,2014-02-08 13:12:00
7:32 AM,-22.0,-27.4,76,30.10,10.0,Calm,Calm,-,N/A,,Clear,0,2014-02-08 13:32:00
7:52 AM,-22.0,-27.4,76,30.10,10.0,Calm,Calm,-,N/A,,Clear,0,2014-02-08 13:52:00
8:12 AM,-18.4,-25.6,70,30.10,10.0,Calm,Calm,-,N/A,,Clear,0,2014-02-08 14:12:00
8:32 AM,-16.6,-23.8,70,30.11,10.0,Calm,Calm,-,N/A,,Clear,0,2014-02-08 14:32:00
8:52 AM,-14.8,-23.8,64,30.10,10.0,Calm,Calm,-,N/A,,Clear,0,2014-02-08 14:52:00
9:12 AM,-13.0,-20.2,70,30.11,10.0,Calm,Calm,-,N/A,,Clear,0,2014-02-08 15:12:00
9:32 AM,-9.4,-18.4,65,30.10,10.0,Calm,Calm,-,N/A,,Clear,0,2014-02-08 15:32:00
9:52 AM,-7.6,-14.8,71,30.10,10.0,Calm,Calm,-,N/A,,Clear,0,2014-02-08 15:52:00
10:12 AM,-4.0,-11.2,71,30.10,10.0,Calm,Calm,-,N/A,,Clear,0,2014-02-08 16:12:00
10:32 AM,-2.2,-9.4,71,30.10,10.0,Calm,Calm,-,N/A,,Clear,0,2014-02-08 16:32:00
10:52 AM,1.4,-5.8,72,30.11,10.0,Calm,Calm,-,N/A,,Clear,0,2014-02-08 16:52:00
11:12 AM,5.0,-4.0,66,30.10,10.0,Calm,Calm,-,N/A,,Clear,0,2014-02-08 17:12:00
11:32 AM,6.8,-2.2,67,30.09,10.0,Calm,Calm,-,N/A,,Clear,0,2014-02-08 17:32:00
11:52 AM,8.6,-4.0,57,30.08,10.0,Calm,Calm,-,N/A,,Clear,0,2014-02-08 17:52:00
12:12 PM,8.6,-2.2,62,30.08,10.0,Calm,Calm,-,N/A,,Clear,0,2014-02-08 18:12:00
12:32 PM,10.4,-0.4,62,30.08,10.0,Calm,Calm,-,N/A,,Clear,0,2014-02-08 18:32:00
12:52 PM,12.2,-0.4,57,30.08,10.0,South,3.5,-,N/A,,Clear,180,2014-02-08 18:52:00
1:12 PM,12.2,-0.4,57,30.07,10.0,South,3.5,-,N/A,,Clear,170,2014-02-08 19:12:00
1:32 PM,12.2,1.4,62,30.07,10.0,South,3.5,-,N/A,,Clear,170,2014-02-08 19:32:00
1:52 PM,12.2,1.4,62,30.08,10.0,South,3.5,-,N/A,,Clear,170,2014-02-08 19:52:00
2:12 PM,14.0,3.2,62,30.08,10.0,SSW,3.5,-,N/A,,Clear,200,2014-02-08 20:12:00
2:32 PM,14.0,3.2,62,30.08,10.0,SW,5.8,-,N/A,,Clear,230,2014-02-08 20:32:00
2:52 PM,14.0,1.4,57,30.08,10.0,SW,3.5,-,N/A,,Clear,230,2014-02-08 20:52:00
3:12 PM,14.0,3.2,62,30.09,10.0,WSW,4.6,-,N/A,,Clear,250,2014-02-08 21:12:00
3:32 PM,14.0,3.2,62,30.09,10.0,WSW,6.9,-,N/A,,Mostly Cloudy,240,2014-02-08 21:32:00
3:52 PM,12.2,3.2,67,30.09,10.0,WSW,4.6,-,N/A,,Overcast,250,2014-02-08 21:52:00
4:12 PM,12.2,3.2,67,30.09,10.0,WSW,4.6,-,N/A,,Overcast,240,2014-02-08 22:12:00
4:32 PM,12.2,3.2,67,30.09,10.0,WSW,4.6,-,N/A,,Overcast,240,2014-02-08 22:32:00
4:52 PM,12.2,3.2,67,30.09,10.0,Calm,Calm,-,N/A,,Scattered Clouds,0,2014-02-08 22:52:00
5:12 PM,12.2,3.2,67,30.09,10.0,Calm,Calm,-,N/A,,Clear,0,2014-02-08 23:12:00
5:32 PM,10.4,1.4,67,30.09,10.0,Calm,Calm,-,N/A,,Clear,0,2014-02-08 23:32:00
5:52 PM,8.6,1.4,73,30.10,10.0,WSW,3.5,-,N/A,,Mostly Cloudy,250,2014-02-08 23:52:00
6:12 PM,8.6,-0.4,67,30.11,10.0,Calm,Calm,-,N/A,,Overcast,0,2014-02-09 00:12:00
6:32 PM,6.8,1.4,79,30.11,10.0,Calm,Calm,-,N/A,,Overcast,0,2014-02-09 00:32:00
6:52 PM,6.8,1.4,79,30.12,10.0,Calm,Calm,-,N/A,,Mostly Cloudy,0,2014-02-09 00:52:00
7:12 PM,6.8,1.4,79,30.13,10.0,Calm,Calm,-,N/A,,Overcast,0,2014-02-09 01:12:00
7:32 PM,6.8,1.4,79,30.13,10.0,Calm,Calm,-,N/A,,Overcast,0,2014-02-09 01:32:00
7:52 PM,6.8,1.4,79,30.13,10.0,Calm,Calm,-,N/A,,Overcast,0,2014-02-09 01:52:00
8:12 PM,6.8,1.4,79,30.13,10.0,West,3.5,-,N/A,,Overcast,280,2014-02-09 02:12:00
8:32 PM,6.8,1.4,79,30.14,10.0,Calm,Calm,-,N/A,,Mostly Cloudy,0,2014-02-09 02:32:00
8:52 PM,6.8,1.4,79,30.14,10.0,Calm,Calm,-,N/A,,Mostly Cloudy,0,2014-02-09 02:52:00
9:12 PM,6.8,1.4,79,30.14,10.0,Calm,Calm,-,N/A,,Scattered Clouds,0,2014-02-09 03:12:00
9:32 PM,5.0,-0.4,78,30.14,10.0,Calm,Calm,-,N/A,,Clear,0,2014-02-09 03:32:00
9:52 PM,5.0,-0.4,78,30.14,10.0,Calm,Calm,-,N/A,,Clear,0,2014-02-09 03:52:00
10:12 PM,1.4,-4.0,78,30.14,10.0,Calm,Calm,-,N/A,,Clear,0,2014-02-09 04:12:00
10:32 PM,1.4,-4.0,78,30.14,10.0,Calm,Calm,-,N/A,,Clear,0,2014-02-09 04:32:00
10:52 PM,-0.4,-5.8,78,30.15,10.0,NNW,4.6,-,N/A,,Clear,340,2014-02-09 04:52:00
11:12 PM,1.4,-4.0,78,30.15,10.0,NNW,5.8,-,N/A,,Clear,340,2014-02-09 05:12:00
11:32 PM,3.2,-5.8,66,30.16,10.0,NNW,6.9,-,N/A,,Clear,340,2014-02-09 05:32:00
11:52 PM,3.2,-5.8,66,30.16,10.0,North,5.8,-,N/A,,Clear,350,2014-02-09 05:52:00